EUTE 1-F1 (ECS 1)

Satellite information

Favourite Embed

Satellite Type and Status

PAYLOADIN ORBIT

Key statistics

Satellite EUTE 1-F1 (ECS 1) at a glance.

Uptime

15306

Days in orbit

Revolutions

≈ 1.0

Per day

Orbit

OTHER

Other

Inclination

12.4

Latest

Satellite identification and parameters

Extended collection of information and parameters for EUTE 1-F1 (ECS 1).

Object identification

Identified? True

Debris? False

Object name: EUTE 1-F1 (ECS 1)

International designator: 1983-058A

Object number (NORAD): 14128

Object ID (CCSDS): 14128

Country: EUROPEAN TELECOMMUNICATIONS SATELLITE ORGANIZATION (EUTELSAT) (EUTE)

Current information (Y/N): Y

RCS size: LARGE

Orbital parameters

Period: 1456.455 minutes

Inclination: 12.3512 deg

SMA: 42562.285 km

Apoapsis: 36230.824 km

Periapsis: 36137.477 km

RAAN: 332.3853 deg

Eccentricy: 0.0010966

Argument of periapsis: 153.9567 deg

Mean anomaly: 206.0192 deg

Mean motion: 0.98870186 rev/day

Mean motion (dot): -0.00000007 rev/day2

B* drag term: 0.0 1/REarth

Two-line elements (TLE)

Creation date: May 11, 2025, 10:21 p.m.

Reference frame: TEME

Reference center: EARTH

Epoch: May 10, 2025, 4:37 p.m. UTC

TLE line 0: 0 EUTE 1-F1 (ECS 1)

TLE line 1: 1 14128U 83058A 25130.69257956 -.00000007 00000-0 00000-0 0 9998

TLE line 2: 2 14128 12.3512 332.3853 0010966 153.9567 206.0192 0.98870186 42730

Live tracking on map

Real-time ground track for satellite EUTE 1-F1 (ECS 1).

In-orbit conjunctions

A list of the most updated potential collisions computed for object EUTE 1-F1 (ECS 1).

Target Orbit TCA Probability of collision Miss distance Type
EUTE 2-F2 OTHER 2025-01-19 16:34:33 TBA 4454.0 (m) PAYLOAD

Associated space launch

Geostationary communications satellite

EUTE 1-F1 (ECS 1) was lifted into orbit during the mission ‘Ariane 1 | ECS 1’, on board a Ariane 1 space rocket.

The launch took place on June 16, 1983, 11:59 a.m. from Ariane Launch Area 1 (ELV).

For more information about the launch, click the button.

Launch to space Ariane 1 | ECS 1
Ariane 1 | ECS 1

Agency: N/A

Status: Launch Successful

Launch date: June 16, 1983, 11:59 a.m. UTC

Rocket: Ariane 1

Launch pad: Ariane Launch Area 1 (ELV)

Location: Guiana Space Centre, French Guiana

...

Latest news about this satellite

There are no fresh news available about this satellite. Check back as we update our databases every day.


Newsletter sign-up

Weekly statistics, charts and insights to help you stay on top of the space industry.